Погода в Кицкове

Россия / Псковская область     56°24′34″N   28°47′54″E
темп.,
°C
ветер,
м/с
пор.,
м/с
влажн.,
%
обл.,
%
осадки,
мм/ч
давл.,
гПа
погр.,
м
28 сентября, вт
вт2800:00+9всв2584100 0.0 1029163
03:00+8св2687100 0.0 1030156
06:00+7св268861 0.0 1030185
09:00+8св25825 0.0 1030223
12:00+12в34605 0.0 10311085
15:00+12в3457100 0.0 10311439
18:00+10в2673100 0.0 1032333
21:00+9вюв2682100 0.0 1033304
29 сентября, ср
ср2900:00+8вюв378496 0.0 1034353
03:00+6вюв379261 0.0 1035196
06:00+4вюв269627 0.0 1035136
09:00+6юв378041 0.0 1036252
12:00+11ююв34578 0.0 10361030
15:00+12юв34495 0.0 10341286
18:00+10юв25655 0.0 1034100
21:00+5юв27805 0.0 1034124
30 сентября, чт
чт3000:00+4юв26855 0.0 1035130
03:00+3юв27895 0.0 1035144
06:00+3юв27935 0.0 1034151
09:00+5юв38785 0.0 1034270
12:00+11ююв47585 0.0 1034863
15:00+13ююв47515 0.0 10321131
18:00+10ююв37665 0.0 1032202
21:00+6ююв310845 0.0 1032201
1 октября, пт
пт100:00+5ююв39896 0.0 1033180
03:00+4ююв299238 0.0 1033175
06:00+4ююв389326 0.0 1033159
09:00+7ю397841 0.0 1033267
12:00+12ю465652 0.0 1032633
15:00+14ю3553100 0.0 1032928
18:00+11ююв237159 0.0 103148
21:00+7ююв278516 0.0 1031126
2 октября, сб
сб200:00+6ююв278995 0.0 1031140
03:00+7ююв388456 0.0 1031208
06:00+5ююв279350 0.0 1030145
09:00+7ююв3878100 0.0 1030259
12:00+11ю4761100 0.0 1029556
15:00+13ю4754100 0.0 1028943
18:00+11ююв4964100 0.0 1027430
21:00+10ююв41273100 0.0 1027474